Flag for Switzerland Weather past 2 weeks in La-Chaux-de-Fonds, Neuchâtel, Switzerland

Now
54 °F

Drizzle. Broken clouds.


Feels Like: 53 °F
Forecast: 49 / 56 °F
Wind: 3 mph from North

Location: Les Eplatures

Current Time: Sep 1, 2015 at 9:23:32 PM

Latest Report: Sep 1, 2015 at 8:50 PM


Visibility: N/A

Pressure: 30.12 "Hg (26.72 "Hg at 1000m altitude)

Humidity: 94%

Dew point: 52 °F

Location of La-Chaux-de-FondsLocation

Historic Weather in La-Chaux-de-Fonds — Graph

°F

La-Chaux-de-Fonds temperature yesterday

Maximum temperature yesterday: 79 °F (at 2:20 PM)
Minimum temperature yesterday: 57 °F (at 5:20 AM)
Average temperature yesterday: 68 °F

Past Weeks' High & Low Weather Summary

 TemperatureHumidityPressure
High82 °F (Aug 30, 3:20 PM)100% (Aug 24, 2:20 AM)30.33 "Hg (Aug 24, 2:20 AM)
Low41 °F (Aug 20, 4:20 AM)34% (Aug 31, 1:20 PM)29.77 "Hg (Aug 24, 5:50 AM)
Average60 °F70%30.12 "Hg
* Reported Aug 17 8:20 PM — Sep 1 8:20 PM, La-Chaux-de-Fonds, Weather by CustomWeather, © 2015

Note: Actual official high and low records may vary slightly from our data, if they occured in-between our weather recording intervals... More about our weather records

Advertising

La-Chaux-de-Fonds weather history for previous 24 hours

 ConditionsComfort  
Time TempWeatherWind HumidityBarometerVisibility
8:20 PM
Tue, Sep 1
55 °FLight rain. Broken clouds.3 mph88%30.12 "Hg4 mi
7:50 PM55 °FScattered showers. Partly sunny.5 mph88%30.12 "Hg5 mi
7:20 PM55 °FScattered showers. Partly sunny.5 mph88%30.09 "Hg5 mi
6:50 PM55 °FScattered showers. Partly sunny.6 mph94%30.09 "Hg5 mi
6:20 PM57 °FSprinkles. Partly sunny.5 mph88%30.09 "Hg4 mi
5:50 PM57 °FSprinkles. Broken clouds.3 mph88%30.09 "HgN/A
5:20 PM57 °FDrizzle. Fog.6 mph94%30.09 "Hg3 mi
4:50 PM57 °FBroken clouds.8 mph88%30.07 "Hg4 mi
4:20 PM57 °FSprinkles. Scattered clouds.5 mph94%30.07 "Hg4 mi
3:50 PM57 °FLots of rain. Broken clouds.7 mph88%30.07 "Hg2 mi
3:20 PM59 °FSprinkles. Broken clouds.10 mph88%30.07 "HgN/A
2:50 PM64 °FBroken clouds.12 mph73%30.04 "Hg6 mi
2:20 PM64 °FScattered showers. Broken clouds.13 mph73%30.04 "HgN/A
1:50 PM64 °FScattered showers. Broken clouds.13 mph68%30.04 "HgN/A
1:20 PM64 °FScattered showers. More clouds than sun.10 mph68%30.01 "HgN/A
12:50 PM66 °FBroken clouds.15 mph64%30.01 "HgN/A
12:20 PM66 °FBroken clouds.10 mph60%30.01 "HgN/A
11:50 AM66 °FPartly sunny.12 mph64%30.01 "HgN/A
11:20 AM66 °FMild.16 mph60%30.01 "HgN/A
10:50 AM66 °FPassing clouds.16 mph64%30.01 "HgN/A
10:20 AM64 °FPartly sunny.14 mph68%29.98 "HgN/A
9:50 AM64 °FPassing clouds.12 mph64%29.98 "HgN/A
9:20 AM64 °FPassing clouds.8 mph64%29.98 "HgN/A
8:50 AM63 °FClear.8 mph68%29.98 "Hg10 mi
8:20 AM64 °FPassing clouds.8 mph60%29.98 "HgN/A
7:50 AM64 °FPassing clouds.7 mph56%29.95 "HgN/A
7:20 AM66 °FClear.3 mph52%29.95 "Hg10 mi
6:50 AM66 °FPassing clouds.7 mph52%29.95 "HgN/A
5:20 AM66 °FClear.5 mph64%29.98 "Hg10 mi
4:50 AM63 °FClear.1 mph77%29.98 "Hg10 mi
4:20 AM61 °FClear.2 mph83%30.01 "Hg10 mi
3:50 AM63 °FClear.1 mph77%30.01 "Hg10 mi
3:20 AM61 °FLight rain. Passing clouds.No wind77%30.01 "HgN/A
2:50 AM59 °FClear.1 mph77%30.04 "HgN/A
2:20 AM59 °FCool.No wind77%30.04 "HgN/A
1:50 AM59 °FClear.No wind77%30.04 "HgN/A
1:20 AM59 °FClear.No wind77%30.04 "HgN/A
12:50 AM59 °FClear.No wind77%30.04 "Hg10 mi
11:20 PM
Mon, Aug 31
61 °FClear.No wind72%30.04 "Hg10 mi
10:50 PM63 °FClear.1 mph68%30.07 "Hg10 mi
10:20 PM64 °FMild.2 mph64%30.07 "HgN/A
9:50 PM66 °FSunny.No wind60%30.07 "Hg10 mi
9:20 PM66 °FClear.1 mph64%30.07 "HgN/A
Weather by CustomWeather, © 2015

See weather overviewHow to use our weather pages